Weather Roundup
Issued by NWS Chicago, IL

Home | Current Version | Previous Version | Text Only | Print | Product List | Glossary Off
Versions: 1 2 3 4 5 6 7 8 9 10 11 12 13 14 15 16 17 18 19 20 21 22 23 24 25 26 27 28 29 30 31 32 33 34 35 36 37 38 39 40 41 42 43 44 45 46 47 48 49 50

499
NZUS59 KLOT 121908
HRRLOT

CHICAGO AREA WEATHER ROUNDUP
NATIONAL WEATHER SERVICE CHICAGO/ROMEOVILLE IL
100 PM CST FRI FEB 12 2016

NOTE: "FAIR" INDICATES FEW OR NO CLOUDS BELOW 12,000 FEET WITH NO
SIGNIFICANT WEATHER AND/OR OBSTRUCTIONS TO VISIBILITY.

* THESE STATIONS ARE NOT UNDER NWS QUALITY CONTROL. THEY ALSO MAY NOT
  REPORT WEATHER SUCH AS PRECIPITATION OR FOG.

ILZ005-006-012>014-019>023-122000-
NORTHEAST ILLINOIS

CITY           SKY/WX    TMP DP  RH WIND       PRES   REMARKS
OHARE          PTSUNNY   22   7  52 NW22      30.15S WCI   6
MIDWAY         MOSUNNY   24   7  48 W20G28    30.16S WCI  10
AURORA         MOSUNNY   24  10  55 NW24G31   30.17F WCI   8
LANSING*       MOSUNNY   24   9  51 NW13G21   30.14F WCI  13
JOLIET*        MOSUNNY   24  11  57 W15G23    30.18F WCI  12
WAUKEGAN       CLOUDY    20   5  52 NW15G25   30.13F WCI   6
DUPAGE AIRPORT PTSUNNY   22   7  52 W21G30    30.15F WCI   6
WHEELING       MOSUNNY   20   6  55 NW16G25   30.16F WCI   6
KANKAKEE*      MIX PCPN  24  13  61 NW17G29   30.17F WCI  11
MORRIS*        PTSUNNY   25  12  58 NW24      30.16F WCI  10
LEWIS AIRPORT* PTSUNNY   23  11  59 NW22G30   30.17S WCI   8
$$

WIZ051-052-058>065-066-070>072-122000-
SOUTHEAST WISCONSIN

CITY           SKY/WX    TMP DP  RH WIND       PRES   REMARKS
MILWAUKEE      MOSUNNY   20   0  41 NW18      30.13F WCI   5
KENOSHA*       PTSUNNY   20   5  52 NW17G31   30.13F WCI   5
RACINE*        MOSUNNY   20   1  43 NW22G30   30.14F WCI   3
BURLINGTON     MOSUNNY   19   3  50 NW24      30.14F WCI   2
WAUKESHA       CLOUDY    18   1  49 W21G28    30.14S WCI   1
WEST BEND      MOSUNNY   18  -2  41 NW24G36   30.13R WCI   0
$$

INZ001>003-010>013-019-020-122000-
NORTHWEST INDIANA

CITY           SKY/WX    TMP DP  RH WIND       PRES   REMARKS
GARY*          MOSUNNY   25   7  46 NW17G30   30.14F WCI  11
MICHIGAN CITY* NOT AVBL
RENSSELAER*    NOT AVBL
VALPARAISO     LGT SNOW  22  10  60 NW15G24   30.11F WCI   9
$$

LMZ740>746-122000-
SOUTHERN LAKE MICHIGAN

STATION/POSITION TIME  SKY/WX   TEMP WIND        PRES    VSBY
                                AIR  DIR/SP/G
                 (UTC)          (F)  (DEG/KT/KT) (MB)    (MI)
HARRISON CRIB    1800            21  320/ 23/ 26   N/A
BURNHAM HARBOR   1900            21  320/ 14/ 21   N/A
CALUMET HARBOR   1800            22  280/ 12/ 21 1020.1F
BURNS HARBOR     1800            21  300/ 17/ 23 1020.7S
MICHIGAN CITY    1800            21  270/ 24/ 27   N/A
$$

ABBREVIATIONS USED IN REMARKS
   TC - TEMPERATURE IN CELSIUS
  WCI - WIND CHILL INDEX
   HX - HEAT INDEX
  VSB - VISIBILITY
$$




USA.gov is the U.S. government's official web portal to all federal, state and local government web resources and services.